Youngstown, OH

12:07 PM EDT on July 24, 2017 (GMT -0400)
Youngstown-Warren Regional

Weather History for KYNG - March, 2012

Change the Weather History Date:

Friday, March 9, 2012

  Actual Average Record
Temperature  
Mean Temperature 32 °F 34 °F  
Max Temperature 38 °F 43 °F 73 °F (2016)
Min Temperature 25 °F 25 °F -1 °F (1984)
Degree Days  
Heating Degree Days 33 31  
Month to date heating degree days 237 290  
Since 1 July heating degree days 4176 4938  
Cooling Degree Days 0 0  
Month to date cooling degree days 0 0  
Year to date cooling degree days 0 0  
Moisture  
Dew Point 23 °F    
Average Humidity 59    
Maximum Humidity 78    
Minimum Humidity 40    
Precipitation  
Precipitation 0.08 in 0.09 in 1.96 in (1964)
Month to date precipitation 1.17 0.77  
Year to date precipitation 8.89 5.47  
Snow  
Snow 0.80 in 0.40 in - ()
Month to date snowfall 3.0 3.9  
Since 1 July snowfall 55.3 52.7  
Snow Depth 0.00 in    
Sea Level Pressure  
Sea Level Pressure 30.24 in    
Wind  
Wind Speed 13 mph (West)    
Max Wind Speed 26 mph    
Max Gust Speed 37 mph    
Visibility 7 miles    
Events Fog , Snow    
T = Trace of Precipitation, MM = Missing Value Source: NWS Daily Summary

Daily Weather History Graph

Daily Weather History Graph

Search for Another Location

Airport or City:

Trip Planner

Search our weather history database for the weather conditions in past years. The results will help you decide how hot, cold, wet, or windy it might be!

Date:

Astronomy

Mar. 09, 2012 Rise Set
Actual Time 6:43 AM EST 6:23 PM EST
Civil Twilight 6:16 AM EST 6:50 PM EST
Nautical Twilight 5:44 AM EST 7:22 PM EST
Astronomical Twilight 5:11 AM EST 7:55 PM EST
Moon 8:23 PM EST (3/9) 6:59 AM EST (3/9)
Length of Visible Light 12h 34m
Length of Day
11h 39m
Full, 98% of the Moon is Illuminated
Mar 9
Full
Mar 14
Last Quarter
Mar 22
New
Mar 30
First Quarter
Apr 6
Full

Hourly Weather History & Observations

Time (EST) Temp. Windchill Dew Point Humidity Pressure Visibility Wind Dir Wind Speed Gust Speed Precip Events Conditions
12:51 AM 30.9 °F 24.3 °F 24.1 °F 76% 30.17 in 10.0 mi West 6.9 mph - N/A   Scattered Clouds
1:51 AM 30.0 °F 22.4 °F 23.0 °F 75% 30.18 in 10.0 mi WSW 8.1 mph - N/A   Partly Cloudy
2:51 AM 30.0 °F 23.2 °F 24.1 °F 79% 30.18 in 10.0 mi SW 6.9 mph - N/A   Partly Cloudy
3:51 AM 30.9 °F 23.5 °F 25.0 °F 79% 30.18 in 10.0 mi SW 8.1 mph - N/A   Overcast
4:51 AM 30.9 °F 26.2 °F 24.1 °F 76% 30.16 in 10.0 mi SSW 4.6 mph - N/A   Overcast
5:51 AM 30.9 °F 22.8 °F 23.0 °F 72% 30.16 in 10.0 mi SW 9.2 mph - N/A   Scattered Clouds
6:51 AM 30.9 °F 21.7 °F 24.1 °F 76% 30.17 in 10.0 mi WSW 11.5 mph - N/A   Scattered Clouds
7:51 AM 33.1 °F 24.9 °F 24.1 °F 70% 30.17 in 10.0 mi WSW 10.4 mph - N/A   Scattered Clouds
8:15 AM 33.8 °F 24.8 °F 24.8 °F 70% 30.15 in 0.8 mi West 12.7 mph 23.0 mph 0.00 in Snow Light Snow
8:28 AM 32.0 °F 23.0 °F 26.6 °F 80% 30.15 in 2.5 mi West 11.5 mph 17.3 mph 0.00 in Snow Light Snow
8:34 AM 32.0 °F 24.2 °F 26.6 °F 80% 30.15 in 1.0 mi WSW 9.2 mph - 0.00 in Snow Light Snow
8:44 AM 32.0 °F 23.6 °F 26.6 °F 80% 30.15 in 7.0 mi West 10.4 mph - 0.00 in Snow Light Snow
8:51 AM 32.0 °F 23.0 °F 26.1 °F 79% 30.18 in 9.0 mi West 11.5 mph - 0.02 in Snow Light Snow
9:20 AM 33.8 °F 25.3 °F 26.6 °F 75% 30.16 in 2.0 mi West 11.5 mph 18.4 mph 0.00 in Snow Light Snow
9:23 AM 33.8 °F 23.5 °F 26.6 °F 75% 30.16 in 1.0 mi West 16.1 mph 21.9 mph 0.00 in Snow Light Snow
9:33 AM 33.8 °F 23.9 °F 28.4 °F 81% 30.17 in 6.0 mi West 15.0 mph 20.7 mph 0.00 in Snow Light Snow
9:51 AM 35.1 °F 25.9 °F 28.0 °F 76% 30.20 in 4.0 mi West 13.8 mph 25.3 mph 0.01 in Snow Light Snow
9:54 AM 35.6 °F 26.2 °F 26.6 °F 70% 30.17 in 1.0 mi West 15.0 mph 25.3 mph 0.00 in Snow Light Snow
10:18 AM 33.8 °F 22.5 °F 28.4 °F 81% 30.18 in 0.5 mi NW 19.6 mph 25.3 mph 0.00 in Fog , Snow Heavy Snow
10:19 AM 33.8 °F 22.5 °F 28.4 °F 81% 30.18 in 0.2 mi NW 19.6 mph 25.3 mph 0.00 in Snow Heavy Snow
10:30 AM 32.0 °F 23.0 °F 28.4 °F 87% 30.18 in 3.0 mi West 11.5 mph 20.7 mph 0.01 in Snow Light Snow
10:37 AM 32.0 °F 21.6 °F 28.4 °F 87% 30.18 in 9.0 mi West 15.0 mph 21.9 mph 0.01 in Snow Light Snow
10:51 AM 36.0 °F 27.1 °F 28.9 °F 76% 30.22 in 9.0 mi West 13.8 mph 21.9 mph N/A   Mostly Cloudy
11:15 AM 37.4 °F 26.6 °F 28.4 °F 70% 30.19 in 3.0 mi West 21.9 mph 28.8 mph 0.00 in Snow Light Snow
11:18 AM 35.6 °F 25.2 °F 26.6 °F 70% 30.20 in 0.8 mi West 18.4 mph 28.8 mph 0.00 in Snow Light Snow
11:22 AM 33.8 °F 21.6 °F 28.4 °F 81% 30.21 in 0.2 mi NW 23.0 mph 33.4 mph 0.00 in Snow Heavy Snow
11:36 AM 32.0 °F 22.1 °F 28.4 °F 87% 30.21 in - WNW 13.8 mph 28.8 mph 0.01 in Snow Light Snow
11:51 AM 34.0 °F 25.0 °F 26.1 °F 73% 30.27 in 9.0 mi WNW 12.7 mph 29.9 mph 0.02 in   Mostly Cloudy
12:13 PM 35.6 °F 25.9 °F 24.8 °F 65% 30.23 in 10.0 mi West 16.1 mph 27.6 mph N/A   Mostly Cloudy
12:37 PM 37.4 °F 28.9 °F 21.2 °F 52% 30.24 in 10.0 mi WNW 13.8 mph 32.2 mph 0.00 in Snow Light Snow
12:51 PM 34.0 °F 23.0 °F 24.1 °F 67% 30.29 in 9.0 mi WNW 18.4 mph 31.1 mph 0.00 in Snow Light Snow
1:51 PM 36.0 °F 24.7 °F 19.9 °F 52% 30.30 in 10.0 mi West 21.9 mph 28.8 mph 0.00 in   Mostly Cloudy
2:51 PM 35.1 °F 23.8 °F 16.0 °F 46% 30.32 in 10.0 mi West 20.7 mph 32.2 mph N/A   Mostly Cloudy
3:51 PM 36.0 °F 24.4 °F 16.0 °F 44% 30.33 in 10.0 mi WNW 23.0 mph 29.9 mph N/A   Mostly Cloudy
4:51 PM 35.1 °F 24.5 °F 14.0 °F 42% 30.35 in 10.0 mi West 18.4 mph 29.9 mph N/A   Scattered Clouds
5:51 PM 34.0 °F 24.2 °F 16.0 °F 48% 30.37 in 10.0 mi NW 15.0 mph 20.7 mph N/A   Mostly Cloudy
6:51 PM 30.9 °F 21.2 °F 16.0 °F 54% 30.39 in 10.0 mi WNW 12.7 mph 20.7 mph N/A   Scattered Clouds
7:51 PM 30.0 °F 21.1 °F 17.1 °F 59% 30.41 in 10.0 mi WNW 10.4 mph - N/A   Partly Cloudy
8:51 PM 30.0 °F 20.0 °F 18.0 °F 61% 30.44 in 10.0 mi NW 12.7 mph 23.0 mph N/A   Mostly Cloudy
9:51 PM 28.9 °F 17.3 °F 15.1 °F 56% 30.44 in 10.0 mi NW 16.1 mph 24.2 mph N/A   Mostly Cloudy
10:51 PM 27.0 °F 16.1 °F 15.1 °F 61% 30.46 in 10.0 mi NNW 12.7 mph - N/A   Partly Cloudy
11:51 PM 26.1 °F 14.0 °F 14.0 °F 60% 30.48 in 10.0 mi NNW 15.0 mph - N/A   Scattered Clouds